| time (UTC) | temp F | wind direction | speed MPH | gust MPH | rain 1hr in | rain 24hr in | rain mn in | humidity % | barometer mb |
| 20260906113508 | 60 | 68 | 2.0 | 3.0 | 0.00 | 0.00 | 0.00 | 97 | 1008.1 |
| 20260906113005 | 60 | 125 | 2.0 | 4.0 | 0.00 | 0.00 | 0.00 | 97 | 1008.3 |
| 20260906112500 | 60 | 60 | 2.0 | 4.0 | 0.00 | 0.00 | 0.00 | 97 | 1008.3 |
| 20260906111957 | 60 | 61 | 2.0 | 5.0 | 0.00 | 0.00 | 0.00 | 97 | 1008.2 |
| 20260906111453 | 59 | 73 | 2.0 | 6.0 | 0.00 | 0.00 | 0.00 | 97 | 1008.2 |
| 20260906110948 | 59 | 31 | 5.0 | 6.0 | 0.00 | 0.00 | 0.00 | 97 | 1007.8 |
| 20260906110445 | 59 | 62 | 3.0 | 8.0 | 0.00 | 0.00 | 0.00 | 96 | 1007.8 |
| 20260906105940 | 59 | 328 | 3.0 | 7.0 | 0.00 | 0.00 | 0.00 | 96 | 1007.9 |
| 20260906105436 | 59 | 127 | 3.0 | 4.0 | 0.00 | 0.00 | 0.00 | 96 | 1007.7 |
| 20260906104428 | 59 | 126 | 2.0 | 6.0 | 0.00 | 0.00 | 0.00 | 96 | 1007.6 |
| 20260906103924 | 59 | 85 | 1.0 | 5.0 | 0.00 | 0.00 | 0.00 | 96 | 1007.5 |
| 20260906103420 | 59 | 351 | 5.0 | 6.0 | 0.00 | 0.00 | 0.00 | 96 | 1007.4 |
| 20260906102916 | 59 | 41 | 4.0 | 5.0 | 0.00 | 0.00 | 0.00 | 96 | 1007.4 |
| 20260906102633 | 59 | 58 | 3.0 | 5.0 | 0.00 | 0.00 | 0.00 | 96 | 1007.2 |
| 20260906102355 | 60 | 75 | 5.0 | 6.0 | 0.00 | 0.00 | 0.00 | 96 | 1007.2 |
| 20260906101404 | 60 | 139 | 4.0 | 4.0 | 0.00 | 0.00 | 0.00 | 96 | 1007.1 |
| 20260906100900 | 60 | 97 | 1.0 | 3.0 | 0.00 | 0.00 | 0.00 | 96 | 1007.2 |
| 20260906100357 | 60 | 92 | 2.0 | 5.0 | 0.00 | 0.00 | 0.00 | 96 | 1007.0 |
| 20260906095852 | 60 | 123 | 3.0 | 5.0 | 0.00 | 0.00 | 0.00 | 96 | 1007.1 |
| 20260906095348 | 60 | 95 | 5.0 | 6.0 | 0.00 | 0.00 | 0.00 | 96 | 1006.8 |
| 20260906094844 | 60 | 82 | 2.0 | 6.0 | 0.00 | 0.00 | 0.00 | 96 | 1007.0 |
| 20260906094341 | 60 | 128 | 4.0 | 6.0 | 0.00 | 0.00 | 0.00 | 96 | 1006.8 |
| 20260906094057 | 60 | 45 | 2.0 | 6.0 | 0.00 | 0.00 | 0.00 | 96 | 1006.8 |
| 20260906093332 | 60 | 4 | 4.0 | 7.0 | 0.00 | 0.00 | 0.00 | 96 | 1006.8 |
| 20260906092828 | 60 | 52 | 4.0 | 5.0 | 0.00 | 0.00 | 0.00 | 96 | 1006.8 |
| 20260906092324 | 60 | 85 | 2.0 | 4.0 | 0.00 | 0.00 | 0.00 | 96 | 1006.8 |
| 20260906091821 | 60 | 78 | 5.0 | 6.0 | 0.00 | 0.00 | 0.00 | 95 | 1006.8 |
| 20260906091316 | 60 | 176 | 2.0 | 4.0 | 0.00 | 0.00 | 0.00 | 96 | 1006.8 |
| 20260906090812 | 60 | 105 | 4.0 | 6.0 | 0.00 | 0.00 | 0.00 | 96 | 1006.5 |
| 20260906090308 | 60 | 76 | 1.0 | 3.0 | 0.00 | 0.00 | 0.00 | 95 | 1006.6 |
| 20260906085804 | 60 | 50 | 3.0 | 5.0 | 0.00 | 0.00 | 0.00 | 95 | 1006.5 |
| 20260906085300 | 60 | 161 | 3.0 | 5.0 | 0.00 | 0.00 | 0.00 | 95 | 1006.4 |
| 20260906084253 | 60 | 89 | 1.0 | 2.0 | 0.00 | 0.00 | 0.00 | 95 | 1006.4 |
| 20260906083748 | 60 | 98 | 2.0 | 7.0 | 0.00 | 0.00 | 0.00 | 95 | 1006.4 |
| 20260906083244 | 60 | 144 | 3.0 | 5.0 | 0.00 | 0.00 | 0.00 | 95 | 1006.6 |
| 20260906082740 | 60 | 108 | 0.0 | 5.0 | 0.00 | 0.00 | 0.00 | 95 | 1006.4 |
| 20260906082458 | 60 | 99 | 5.0 | 8.0 | 0.00 | 0.00 | 0.00 | 95 | 1006.4 |
| 20260906081951 | 60 | 17 | 4.0 | 6.0 | 0.00 | 0.00 | 0.00 | 95 | 1006.4 |
| 20260906081228 | 61 | 140 | 2.0 | 4.0 | 0.00 | 0.00 | 0.00 | 95 | 1006.3 |
| 20260906080724 | 61 | 86 | 2.0 | 3.0 | 0.00 | 0.00 | 0.00 | 94 | 1006.6 |
| 20260906080220 | 61 | 60 | 2.0 | 2.0 | 0.00 | 0.00 | 0.00 | 95 | 1006.3 |
| 20260906075716 | 61 | 77 | 1.0 | 2.0 | 0.00 | 0.00 | 0.00 | 95 | 1006.3 |
| 20260906075212 | 61 | 73 | 0.0 | 1.0 | 0.00 | 0.00 | 0.00 | 94 | 1006.1 |
| 20260906075154 | 61 | 80 | 1.0 | 2.0 | 0.00 | 0.00 | 0.00 | 94 | 1006.2 |
| 20260906074205 | 61 | 89 | 0.0 | 2.0 | 0.00 | 0.00 | 0.00 | 94 | 1006.1 |
| 20260906073700 | 61 | 64 | 1.0 | 1.0 | 0.00 | 0.00 | 0.00 | 94 | 1006.1 |
| 20260906073157 | 61 | 92 | 1.0 | 2.0 | 0.00 | 0.00 | 0.00 | 94 | 1006.1 |
| 20260906072652 | 61 | 88 | 1.0 | 2.0 | 0.00 | 0.00 | 0.00 | 93 | 1006.1 |
| 20260906072148 | 61 | 89 | 1.0 | 2.0 | 0.00 | 0.00 | 0.00 | 93 | 1006.3 |
| 20260906071644 | 62 | 59 | 1.0 | 2.0 | 0.00 | 0.00 | 0.00 | 93 | 1006.0 |
| 20260906071140 | 62 | 78 | 1.0 | 2.0 | 0.00 | 0.00 | 0.00 | 93 | 1006.0 |
| 20260906070636 | 62 | 109 | 1.0 | 2.0 | 0.00 | 0.00 | 0.00 | 93 | 1005.9 |
| 20260906070132 | 62 | 69 | 2.0 | 2.0 | 0.00 | 0.00 | 0.00 | 92 | 1006.0 |
| 20260906070114 | 62 | 105 | 1.0 | 2.0 | 0.00 | 0.00 | 0.00 | 92 | 1005.9 |
| 20260906065124 | 62 | 76 | 1.0 | 2.0 | 0.00 | 0.00 | 0.00 | 92 | 1006.0 |
| 20260906064621 | 62 | 60 | 1.0 | 2.0 | 0.00 | 0.00 | 0.00 | 92 | 1006.0 |
| 20260906064117 | 62 | 123 | 1.0 | 2.0 | 0.00 | 0.00 | 0.00 | 92 | 1006.2 |
| 20260906063612 | 62 | 89 | 0.0 | 2.0 | 0.00 | 0.00 | 0.00 | 92 | 1006.1 |
| 20260906063109 | 62 | 101 | 1.0 | 2.0 | 0.00 | 0.00 | 0.00 | 92 | 1006.2 |
| 20260906062604 | 62 | 64 | 1.0 | 2.0 | 0.00 | 0.00 | 0.00 | 93 | 1006.2 |
| 20260906062100 | 62 | 85 | 1.0 | 2.0 | 0.00 | 0.00 | 0.00 | 93 | 1006.2 |
| 20260906061557 | 62 | 63 | 0.0 | 2.0 | 0.00 | 0.00 | 0.00 | 93 | 1006.1 |
| 20260906061052 | 62 | 89 | 0.0 | 2.0 | 0.00 | 0.00 | 0.00 | 93 | 1006.2 |
| 20260906060548 | 62 | 123 | 0.0 | 2.0 | 0.00 | 0.00 | 0.00 | 93 | 1006.1 |
| 20260906060045 | 62 | 98 | 0.0 | 2.0 | 0.00 | 0.00 | 0.00 | 93 | 1006.2 |
| 20260906055540 | 62 | 80 | 1.0 | 1.0 | 0.00 | 0.00 | 0.00 | 92 | 1006.1 |
| 20260906055036 | 62 | 66 | 1.0 | 2.0 | 0.00 | 0.00 | 0.00 | 92 | 1006.2 |
| 20260906054532 | 62 | 84 | 0.0 | 2.0 | 0.00 | 0.00 | 0.00 | 92 | 1006.0 |
| 20260906054028 | 63 | 92 | 1.0 | 1.0 | 0.00 | 0.00 | 0.00 | 92 | 1006.2 |
| 20260906053524 | 63 | 68 | 1.0 | 2.0 | 0.00 | 0.00 | 0.00 | 92 | 1006.2 |
| 20260906053021 | 63 | 68 | 0.0 | 2.0 | 0.00 | 0.00 | 0.00 | 92 | 1006.2 |
| 20260906052516 | 63 | 96 | 1.0 | 2.0 | 0.00 | 0.00 | 0.00 | 92 | 1006.4 |
| 20260906052012 | 63 | 86 | 0.0 | 2.0 | 0.00 | 0.00 | 0.00 | 92 | 1006.3 |
| 20260906051508 | 63 | 93 | 0.0 | 2.0 | 0.00 | 0.00 | 0.00 | 92 | 1006.4 |
| 20260906051004 | 63 | 132 | 1.0 | 2.0 | 0.00 | 0.00 | 0.00 | 92 | 1006.3 |
| 20260906050501 | 63 | 86 | 1.0 | 2.0 | 0.00 | 0.00 | 0.00 | 92 | 1006.4 |
| 20260906045957 | 63 | 83 | 1.0 | 2.0 | 0.00 | 0.00 | 0.00 | 92 | 1006.5 |
| 20260906045452 | 63 | 99 | 0.0 | 1.0 | 0.00 | 0.00 | 0.00 | 91 | 1006.4 |
| 20260906045207 | 63 | 92 | 1.0 | 1.0 | 0.00 | 0.00 | 0.00 | 91 | 1006.7 |
| 20260906044444 | 63 | 77 | 1.0 | 1.0 | 0.00 | 0.00 | 0.00 | 91 | 1006.4 |
| 20260906043941 | 64 | 91 | 1.0 | 1.0 | 0.00 | 0.00 | 0.00 | 91 | 1006.6 |
| 20260906043436 | 64 | 81 | 1.0 | 2.0 | 0.00 | 0.00 | 0.00 | 91 | 1006.6 |
| 20260906042932 | 64 | 62 | 2.0 | 2.0 | 0.00 | 0.00 | 0.00 | 90 | 1006.5 |
| 20260906042428 | 64 | 113 | 0.0 | 1.0 | 0.00 | 0.00 | 0.00 | 90 | 1006.6 |
| 20260906042409 | 64 | 85 | 1.0 | 2.0 | 0.00 | 0.00 | 0.00 | 90 | 1006.4 |
| 20260906041418 | 64 | 84 | 1.0 | 2.0 | 0.00 | 0.00 | 0.00 | 90 | 1006.6 |
| 20260906040916 | 64 | 79 | 1.0 | 2.0 | 0.00 | 0.00 | 0.00 | 90 | 1006.6 |
| 20260906040416 | 64 | 103 | 1.0 | 2.0 | 0.00 | 0.00 | 0.00 | 90 | 1006.6 |
| 20260906035908 | 64 | 89 | 1.0 | 2.0 | 0.00 | 0.00 | 0.00 | 90 | 1006.5 |
| 20260906035404 | 64 | 106 | 1.0 | 2.0 | 0.00 | 0.00 | 0.00 | 90 | 1006.5 |
| 20260906034900 | 64 | 82 | 1.0 | 2.0 | 0.00 | 0.00 | 0.00 | 89 | 1006.4 |
| 20260906034618 | 64 | 91 | 0.0 | 1.0 | 0.00 | 0.00 | 0.00 | 89 | 1006.6 |
| 20260906033852 | 65 | 102 | 1.0 | 1.0 | 0.00 | 0.00 | 0.00 | 89 | 1006.4 |
| 20260906033608 | 64 | 106 | 1.0 | 2.0 | 0.00 | 0.00 | 0.00 | 89 | 1006.6 |
| 20260906032845 | 65 | 89 | 0.0 | 1.0 | 0.00 | 0.00 | 0.00 | 87 | 1006.7 |
| 20260906032236 | 65 | 89 | 1.0 | 2.0 | 0.00 | 0.00 | 0.00 | 87 | 1006.6 |
| 20260906031732 | 65 | 85 | 1.0 | 2.0 | 0.00 | 0.00 | 0.00 | 87 | 1006.8 |
| 20260906031228 | 65 | 94 | 0.0 | 1.0 | 0.00 | 0.00 | 0.00 | 86 | 1006.7 |
| 20260906030725 | 65 | 81 | 0.0 | 1.0 | 0.00 | 0.00 | 0.00 | 86 | 1006.6 |
| 20260906030220 | 66 | 80 | 0.0 | 1.0 | 0.00 | 0.00 | 0.00 | 86 | 1006.4 |
| 20260906025716 | 66 | 94 | 1.0 | 2.0 | 0.00 | 0.00 | 0.00 | 87 | 1006.3 |
| 20260906025212 | 66 | 89 | 0.0 | 1.0 | 0.00 | 0.00 | 0.00 | 86 | 1006.5 |
| 20260906024931 | 66 | 86 | 0.0 | 1.0 | 0.00 | 0.00 | 0.00 | 85 | 1006.3 |
| 20260906024423 | 66 | 93 | 0.0 | 1.0 | 0.00 | 0.00 | 0.00 | 84 | 1006.5 |
| 20260906023700 | 67 | 72 | 1.0 | 1.0 | 0.00 | 0.00 | 0.00 | 84 | 1006.6 |
| 20260906023157 | 67 | 113 | 0.0 | 1.0 | 0.00 | 0.00 | 0.00 | 84 | 1006.4 |
| 20260906022652 | 67 | 89 | 0.0 | 1.0 | 0.00 | 0.00 | 0.00 | 83 | 1006.3 |
| 20260906022407 | 67 | 99 | 1.0 | 2.0 | 0.00 | 0.00 | 0.00 | 83 | 1006.2 |
| 20260906021645 | 67 | 101 | 0.0 | 1.0 | 0.00 | 0.00 | 0.00 | 82 | 1006.5 |
| 20260906021140 | 68 | 75 | 0.0 | 1.0 | 0.00 | 0.00 | 0.00 | 81 | 1006.4 |
| 20260906020636 | 68 | 76 | 0.0 | 1.0 | 0.00 | 0.00 | 0.00 | 80 | 1006.5 |
| 20260906020132 | 68 | 74 | 0.0 | 1.0 | 0.00 | 0.00 | 0.00 | 80 | 1006.4 |
| 20260906015629 | 69 | 108 | 1.0 | 1.0 | 0.00 | 0.00 | 0.00 | 79 | 1006.3 |
| 20260906015124 | 69 | 85 | 0.0 | 1.0 | 0.00 | 0.00 | 0.00 | 79 | 1006.2 |
| 20260906014620 | 69 | 87 | 0.0 | 1.0 | 0.00 | 0.00 | 0.00 | 78 | 1006.2 |
| 20260906014116 | 69 | 122 | 0.0 | 1.0 | 0.00 | 0.00 | 0.00 | 77 | 1006.4 |
| 20260906013612 | 70 | 130 | 0.0 | 1.0 | 0.00 | 0.00 | 0.00 | 76 | 1006.0 |
| 20260906013108 | 70 | 101 | 0.0 | 1.0 | 0.00 | 0.00 | 0.00 | 75 | 1006.1 |
| 20260906012604 | 70 | 110 | 0.0 | 1.0 | 0.00 | 0.00 | 0.00 | 74 | 1006.1 |
| 20260906012321 | 71 | 66 | 0.0 | 0.0 | 0.00 | 0.00 | 0.00 | 73 | 1006.1 |
| 20260906011557 | 71 | 59 | 0.0 | 1.0 | 0.00 | 0.00 | 0.00 | 72 | 1006.0 |
| 20260906011053 | 72 | 66 | 0.0 | 0.0 | 0.00 | 0.00 | 0.00 | 72 | 1005.9 |
| 20260906010548 | 72 | 54 | 0.0 | 1.0 | 0.00 | 0.00 | 0.00 | 70 | 1005.8 |
| 20260906010044 | 72 | 89 | 0.0 | 0.0 | 0.00 | 0.00 | 0.00 | 69 | 1005.7 |
| 20260906005541 | 73 | 75 | 0.0 | 0.0 | 0.00 | 0.00 | 0.00 | 68 | 1005.8 |
| 20260906005524 | 73 | 333 | 0.0 | 0.0 | 0.00 | 0.00 | 0.00 | 68 | 1005.7 |
| 20260906004532 | 74 | 195 | 0.0 | 0.0 | 0.00 | 0.00 | 0.00 | 67 | 1005.8 |
| 20260906004029 | 74 | 224 | 0.0 | 0.0 | 0.00 | 0.00 | 0.00 | 67 | 1005.6 |
| 20260906003745 | 74 | 271 | 0.0 | 0.0 | 0.00 | 0.00 | 0.00 | 66 | 1005.5 |
| 20260906002517 | 75 | 284 | 0.0 | 2.0 | 0.00 | 0.00 | 0.00 | 64 | 1005.5 |
| 20260906002012 | 75 | 166 | 0.0 | 0.0 | 0.00 | 0.00 | 0.00 | 64 | 1005.4 |
| 20260906001508 | 75 | 255 | 0.0 | 0.0 | 0.00 | 0.00 | 0.00 | 64 | 1005.5 |
| 20260906001004 | 76 | 104 | 0.0 | 0.0 | 0.00 | 0.00 | 0.00 | 63 | 1005.3 |
| 20260906000723 | 76 | 254 | 0.0 | 1.0 | 0.00 | 0.00 | 0.00 | 62 | 1005.2 |
| 20260905235957 | 76 | 224 | 0.0 | 0.0 | 0.00 | 0.00 | 0.00 | 63 | 1005.3 |
| 20260905235452 | 77 | 19 | 0.0 | 2.0 | 0.00 | 0.00 | 0.00 | 61 | 1005.3 |
| 20260905234948 | 77 | 147 | 0.0 | 2.0 | 0.00 | 0.00 | 0.00 | 62 | 1005.3 |
| 20260905234445 | 77 | 58 | 1.0 | 3.0 | 0.00 | 0.00 | 0.00 | 61 | 1005.1 |
| 20260905233940 | 78 | 315 | 0.0 | 2.0 | 0.00 | 0.00 | 0.00 | 62 | 1004.9 |
| 20260905233436 | 78 | 282 | 0.0 | 1.0 | 0.00 | 0.00 | 0.00 | 61 | 1005.1 |
| 20260905232932 | 78 | 306 | 2.0 | 4.0 | 0.00 | 0.00 | 0.00 | 61 | 1005.1 |
| 20260905232650 | 78 | 10 | 2.0 | 4.0 | 0.00 | 0.00 | 0.00 | 60 | 1004.7 |
| 20260905231925 | 78 | 293 | 0.0 | 1.0 | 0.00 | 0.00 | 0.00 | 62 | 1004.8 |
| 20260905231639 | 79 | 307 | 0.0 | 3.0 | 0.00 | 0.00 | 0.00 | 60 | 1004.9 |
| 20260905230916 | 79 | 286 | 1.0 | 2.0 | 0.00 | 0.00 | 0.00 | 60 | 1004.9 |
| 20260905230412 | 79 | 285 | 0.0 | 2.0 | 0.00 | 0.00 | 0.00 | 58 | 1004.8 |
| 20260905225908 | 79 | 288 | 2.0 | 2.0 | 0.00 | 0.00 | 0.00 | 58 | 1005.0 |
| 20260905225404 | 79 | 337 | 1.0 | 2.0 | 0.00 | 0.00 | 0.00 | 58 | 1004.9 |
| 20260905225345 | 80 | 44 | 0.0 | 4.0 | 0.00 | 0.00 | 0.00 | 58 | 1004.8 |
| 20260905224357 | 80 | 233 | 0.0 | 2.0 | 0.00 | 0.00 | 0.00 | 58 | 1004.9 |
| 20260905223852 | 80 | 133 | 1.0 | 4.0 | 0.00 | 0.00 | 0.00 | 59 | 1004.7 |
| 20260905223348 | 80 | 5 | 3.0 | 5.0 | 0.00 | 0.00 | 0.00 | 59 | 1004.6 |
| 20260905222844 | 80 | 310 | 2.0 | 3.0 | 0.00 | 0.00 | 0.00 | 58 | 1004.6 |
| 20260905222340 | 80 | 84 | 0.0 | 2.0 | 0.00 | 0.00 | 0.00 | 58 | 1004.6 |
| 20260905221836 | 80 | 288 | 1.0 | 3.0 | 0.00 | 0.00 | 0.00 | 59 | 1004.6 |
| 20260905221332 | 80 | 36 | 1.0 | 4.0 | 0.00 | 0.00 | 0.00 | 60 | 1004.5 |
| 20260905220829 | 80 | 62 | 0.0 | 5.0 | 0.00 | 0.00 | 0.00 | 59 | 1004.4 |
| 20260905220325 | 80 | 22 | 2.0 | 2.0 | 0.00 | 0.00 | 0.00 | 59 | 1004.5 |
| 20260905215820 | 81 | 327 | 4.0 | 4.0 | 0.00 | 0.00 | 0.00 | 58 | 1004.3 |
| 20260905215316 | 81 | 297 | 2.0 | 3.0 | 0.00 | 0.00 | 0.00 | 59 | 1004.2 |
| 20260905214813 | 81 | 303 | 0.0 | 3.0 | 0.00 | 0.00 | 0.00 | 59 | 1004.3 |
| 20260905214308 | 81 | 7 | 1.0 | 2.0 | 0.00 | 0.00 | 0.00 | 58 | 1004.3 |
| 20260905213804 | 81 | 332 | 1.0 | 3.0 | 0.00 | 0.00 | 0.00 | 57 | 1004.0 |
| 20260905213300 | 81 | 325 | 2.0 | 4.0 | 0.00 | 0.00 | 0.00 | 58 | 1004.0 |
| 20260905212757 | 82 | 63 | 2.0 | 4.0 | 0.00 | 0.00 | 0.00 | 58 | 1004.0 |
| 20260905212252 | 82 | 290 | 2.0 | 6.0 | 0.00 | 0.00 | 0.00 | 58 | 1003.8 |
| 20260905211749 | 82 | 340 | 0.0 | 4.0 | 0.00 | 0.00 | 0.00 | 57 | 1003.9 |
| 20260905211504 | 82 | 289 | 2.0 | 3.0 | 0.00 | 0.00 | 0.00 | 58 | 1003.8 |
| 20260905210740 | 82 | 354 | 2.0 | 8.0 | 0.00 | 0.00 | 0.00 | 58 | 1003.8 |
| 20260905210236 | 82 | 286 | 0.0 | 2.0 | 0.00 | 0.00 | 0.00 | 59 | 1004.0 |
| 20260905205732 | 82 | 333 | 0.0 | 2.0 | 0.00 | 0.00 | 0.00 | 58 | 1003.7 |
| 20260905205228 | 82 | 322 | 0.0 | 2.0 | 0.00 | 0.00 | 0.00 | 57 | 1003.8 |
| 20260905204945 | 82 | 321 | 2.0 | 3.0 | 0.00 | 0.00 | 0.00 | 58 | 1003.8 |
| 20260905204221 | 82 | 51 | 5.0 | 9.0 | 0.00 | 0.00 | 0.00 | 57 | 1004.0 |
| 20260905204204 | 81 | 5 | 1.0 | 4.0 | 0.00 | 0.00 | 0.00 | 58 | 1004.0 |
| 20260905203212 | 82 | 352 | 1.0 | 5.0 | 0.00 | 0.00 | 0.00 | 59 | 1004.0 |
| 20260905202709 | 81 | 356 | 5.0 | 6.0 | 0.00 | 0.00 | 0.00 | 59 | 1004.0 |
| 20260905202205 | 81 | 52 | 2.0 | 3.0 | 0.00 | 0.00 | 0.00 | 58 | 1004.3 |
| 20260905201922 | 81 | 261 | 0.0 | 2.0 | 0.00 | 0.00 | 0.00 | 61 | 1004.0 |
| 20260905201157 | 80 | 285 | 0.0 | 4.0 | 0.00 | 0.00 | 0.00 | 60 | 1004.2 |
| 20260905200653 | 81 | 356 | 6.0 | 6.0 | 0.00 | 0.00 | 0.00 | 61 | 1004.2 |
| 20260905200409 | 80 | 351 | 1.0 | 3.0 | 0.00 | 0.00 | 0.00 | 60 | 1004.2 |
| 20260905195644 | 80 | 292 | 0.0 | 2.0 | 0.00 | 0.00 | 0.00 | 62 | 1004.1 |
| 20260905195140 | 80 | 352 | 2.0 | 4.0 | 0.00 | 0.00 | 0.00 | 61 | 1004.4 |
| 20260905194636 | 80 | 327 | 2.0 | 5.0 | 0.00 | 0.00 | 0.00 | 61 | 1004.2 |
| 20260905194132 | 81 | 40 | 2.0 | 2.0 | 0.00 | 0.00 | 0.00 | 61 | 1004.2 |
| 20260905193628 | 80 | 261 | 0.0 | 2.0 | 0.00 | 0.00 | 0.00 | 62 | 1004.3 |
| 20260905193124 | 81 | 318 | 3.0 | 3.0 | 0.00 | 0.00 | 0.00 | 60 | 1004.4 |
| 20260905193108 | 80 | 306 | 0.0 | 2.0 | 0.00 | 0.00 | 0.00 | 62 | 1004.4 |
| 20260905192116 | 81 | 324 | 1.0 | 3.0 | 0.00 | 0.00 | 0.00 | 61 | 1004.3 |
| 20260905191613 | 81 | 309 | 0.0 | 1.0 | 0.00 | 0.00 | 0.00 | 61 | 1004.5 |
| 20260905191108 | 81 | 230 | 0.0 | 3.0 | 0.00 | 0.00 | 0.00 | 61 | 1004.6 |
| 20260905190605 | 81 | 44 | 0.0 | 2.0 | 0.00 | 0.00 | 0.00 | 61 | 1004.5 |
| 20260905190101 | 79 | 149 | 2.0 | 3.0 | 0.00 | 0.00 | 0.00 | 61 | 1004.8 |
| 20260905185558 | 78 | 135 | 0.0 | 2.0 | 0.00 | 0.00 | 0.00 | 64 | 1004.6 |
| 20260905185052 | 80 | 95 | 1.0 | 3.0 | 0.00 | 0.00 | 0.00 | 64 | 1004.6 |
| 20260905184548 | 79 | 173 | 2.0 | 2.0 | 0.00 | 0.00 | 0.00 | 65 | 1004.8 |
| 20260905184044 | 80 | 154 | 1.0 | 3.0 | 0.00 | 0.00 | 0.00 | 65 | 1004.9 |
| 20260905183540 | 80 | 240 | 0.0 | 2.0 | 0.00 | 0.00 | 0.00 | 65 | 1005.1 |
| 20260905183036 | 80 | 6 | 1.0 | 1.0 | 0.00 | 0.00 | 0.00 | 66 | 1005.1 |
| 20260905182532 | 80 | 344 | 1.0 | 6.0 | 0.00 | 0.00 | 0.00 | 65 | 1004.9 |
| 20260905182028 | 79 | 130 | 0.0 | 1.0 | 0.00 | 0.00 | 0.00 | 67 | 1005.1 |
| 20260905181525 | 80 | 341 | 2.0 | 3.0 | 0.00 | 0.00 | 0.00 | 65 | 1005.3 |
| 20260905181020 | 79 | 235 | 0.0 | 1.0 | 0.00 | 0.00 | 0.00 | 66 | 1005.3 |
| 20260905181002 | 79 | 121 | 0.0 | 1.0 | 0.00 | 0.00 | 0.00 | 66 | 1005.3 |
| 20260905180012 | 79 | 7 | 0.0 | 1.0 | 0.00 | 0.00 | 0.00 | 66 | 1005.3 |
| 20260905175508 | 80 | 86 | 2.0 | 2.0 | 0.00 | 0.00 | 0.00 | 67 | 1005.3 |
| 20260905175227 | 80 | 98 | 0.0 | 2.0 | 0.00 | 0.00 | 0.00 | 66 | 1005.2 |
| 20260905174500 | 80 | 164 | 0.0 | 1.0 | 0.00 | 0.00 | 0.00 | 66 | 1005.4 |
| 20260905173957 | 80 | 128 | 1.0 | 1.0 | 0.00 | 0.00 | 0.00 | 65 | 1005.4 |
| 20260905173452 | 80 | 309 | 0.0 | 2.0 | 0.00 | 0.00 | 0.00 | 63 | 1005.5 |
| 20260905172948 | 80 | 20 | 0.0 | 2.0 | 0.00 | 0.00 | 0.00 | 61 | 1005.6 |
| 20260905172703 | 80 | 322 | 0.0 | 2.0 | 0.00 | 0.00 | 0.00 | 63 | 1005.7 |
| 20260905172201 | 80 | 15 | 2.0 | 3.0 | 0.00 | 0.00 | 0.00 | 61 | 1005.5 |
| 20260905171436 | 80 | 24 | 0.0 | 4.0 | 0.00 | 0.00 | 0.00 | 60 | 1005.6 |
| 20260905170932 | 80 | 124 | 0.0 | 2.0 | 0.00 | 0.00 | 0.00 | 62 | 1005.5 |
| 20260905170429 | 80 | 222 | 1.0 | 2.0 | 0.00 | 0.00 | 0.00 | 61 | 1005.5 |
| 20260905165924 | 80 | 132 | 0.0 | 1.0 | 0.00 | 0.00 | 0.00 | 60 | 1005.7 |
| 20260905165641 | 81 | 8 | 2.0 | 4.0 | 0.00 | 0.00 | 0.00 | 59 | 1005.8 |
| 20260905164916 | 80 | 315 | 1.0 | 4.0 | 0.00 | 0.00 | 0.00 | 60 | 1005.8 |
| 20260905164412 | 80 | 352 | 1.0 | 4.0 | 0.00 | 0.00 | 0.00 | 62 | 1005.6 |
| 20260905164127 | 80 | 329 | 2.0 | 4.0 | 0.00 | 0.00 | 0.00 | 62 | 1005.5 |
| 20260905163404 | 79 | 242 | 0.0 | 4.0 | 0.00 | 0.00 | 0.00 | 63 | 1005.8 |
| 20260905163347 | 80 | 2 | 3.0 | 4.0 | 0.00 | 0.00 | 0.00 | 62 | 1005.5 |
| 20260905162358 | 80 | 354 | 3.0 | 4.0 | 0.00 | 0.00 | 0.00 | 63 | 1005.8 |
| 20260905161852 | 80 | 19 | 0.0 | 4.0 | 0.00 | 0.00 | 0.00 | 65 | 1005.9 |
| 20260905161348 | 80 | 5 | 3.0 | 4.0 | 0.00 | 0.00 | 0.00 | 64 | 1006.1 |
| 20260905160845 | 81 | 301 | 1.0 | 4.0 | 0.00 | 0.00 | 0.00 | 62 | 1006.1 |
| 20260905160340 | 80 | 34 | 2.0 | 3.0 | 0.00 | 0.00 | 0.00 | 63 | 1006.2 |
| 20260905155836 | 80 | 294 | 2.0 | 3.0 | 0.00 | 0.00 | 0.00 | 63 | 1006.0 |
| 20260905155332 | 79 | 321 | 1.0 | 2.0 | 0.00 | 0.00 | 0.00 | 64 | 1006.0 |
| 20260905154829 | 79 | 358 | 1.0 | 2.0 | 0.00 | 0.00 | 0.00 | 64 | 1006.1 |
| 20260905154324 | 79 | 356 | 2.0 | 4.0 | 0.00 | 0.00 | 0.00 | 65 | 1006.2 |
| 20260905153821 | 79 | 224 | 0.0 | 3.0 | 0.00 | 0.00 | 0.00 | 66 | 1006.4 |
| 20260905152812 | 79 | 37 | 0.0 | 3.0 | 0.00 | 0.00 | 0.00 | 66 | 1006.5 |
| 20260905152529 | 80 | 332 | 5.0 | 6.0 | 0.00 | 0.00 | 0.00 | 64 | 1006.6 |
| 20260905151804 | 79 | 21 | 0.0 | 4.0 | 0.00 | 0.00 | 0.00 | 64 | 1006.4 |
| 20260905151301 | 80 | 21 | 2.0 | 5.0 | 0.00 | 0.00 | 0.00 | 63 | 1006.6 |
| 20260905150757 | 80 | 300 | 3.0 | 4.0 | 0.00 | 0.00 | 0.00 | 62 | 1006.4 |
| 20260905150252 | 80 | 67 | 1.0 | 5.0 | 0.00 | 0.00 | 0.00 | 62 | 1006.2 |
| 20260905145749 | 80 | 299 | 0.0 | 4.0 | 0.00 | 0.00 | 0.00 | 62 | 1006.3 |
| 20260905145244 | 80 | 307 | 1.0 | 4.0 | 0.00 | 0.00 | 0.00 | 63 | 1006.2 |
| 20260905144740 | 79 | 195 | 0.0 | 3.0 | 0.00 | 0.00 | 0.00 | 64 | 1006.1 |
| 20260905144236 | 79 | 312 | 6.0 | 6.0 | 0.00 | 0.00 | 0.00 | 63 | 1006.1 |
| 20260905143732 | 79 | 0 | 3.0 | 6.0 | 0.00 | 0.00 | 0.00 | 65 | 1006.1 |
| 20260905143228 | 79 | 15 | 2.0 | 6.0 | 0.00 | 0.00 | 0.00 | 64 | 1006.0 |
| 20260905142946 | 79 | 293 | 2.0 | 4.0 | 0.00 | 0.00 | 0.00 | 65 | 1005.7 |
| 20260905142439 | 79 | 312 | 6.0 | 6.0 | 0.00 | 0.00 | 0.00 | 64 | 1005.7 |
| 20260905141716 | 79 | 301 | 0.0 | 4.0 | 0.00 | 0.00 | 0.00 | 66 | 1005.7 |
| 20260905141433 | 78 | 18 | 1.0 | 5.0 | 0.00 | 0.00 | 0.00 | 65 | 1005.7 |
| 20260905140708 | 78 | 352 | 2.0 | 4.0 | 0.00 | 0.00 | 0.00 | 65 | 1005.8 |
| 20260905140427 | 78 | 30 | 5.0 | 6.0 | 0.00 | 0.00 | 0.00 | 67 | 1005.9 |
| 20260905135919 | 78 | 41 | 3.0 | 4.0 | 0.00 | 0.00 | 0.00 | 66 | 1005.8 |
| 20260905135157 | 79 | 57 | 4.0 | 11.0 | 0.00 | 0.00 | 0.00 | 67 | 1005.8 |
| 20260905134652 | 78 | 116 | 3.0 | 3.0 | 0.00 | 0.00 | 0.00 | 68 | 1005.9 |
| 20260905134149 | 78 | 354 | 2.0 | 4.0 | 0.00 | 0.00 | 0.00 | 70 | 1005.7 |
| 20260905133644 | 78 | 4 | 2.0 | 9.0 | 0.00 | 0.00 | 0.00 | 71 | 1005.8 |
| 20260905133141 | 78 | 46 | 1.0 | 3.0 | 0.00 | 0.00 | 0.00 | 73 | 1005.9 |
| 20260905132636 | 77 | 143 | 1.0 | 3.0 | 0.00 | 0.00 | 0.00 | 74 | 1005.8 |
| 20260905132132 | 77 | 49 | 4.0 | 11.0 | 0.00 | 0.00 | 0.00 | 74 | 1006.0 |
| 20260905131628 | 77 | 329 | 2.0 | 6.0 | 0.00 | 0.00 | 0.00 | 73 | 1005.8 |
| 20260905131124 | 77 | 272 | 2.0 | 5.0 | 0.00 | 0.00 | 0.00 | 73 | 1005.7 |
| 20260905130620 | 77 | 21 | 2.0 | 7.0 | 0.00 | 0.00 | 0.00 | 75 | 1005.7 |
| 20260905130116 | 77 | 22 | 5.0 | 6.0 | 0.00 | 0.00 | 0.00 | 76 | 1005.5 |
| 20260905125612 | 76 | 349 | 5.0 | 9.0 | 0.00 | 0.00 | 0.00 | 79 | 1005.4 |
| 20260905125109 | 76 | 334 | 3.0 | 6.0 | 0.00 | 0.00 | 0.00 | 82 | 1005.5 |
| 20260905124604 | 75 | 352 | 1.0 | 5.0 | 0.00 | 0.00 | 0.00 | 83 | 1005.4 |
| 20260905124100 | 75 | 346 | 3.0 | 6.0 | 0.00 | 0.00 | 0.00 | 84 | 1005.6 |
| 20260905123557 | 75 | 26 | 3.0 | 4.0 | 0.00 | 0.00 | 0.00 | 85 | 1005.5 |
| 20260905123314 | 75 | 70 | 4.0 | 5.0 | 0.00 | 0.00 | 0.00 | 86 | 1005.5 |
| 20260905122548 | 75 | 14 | 7.0 | 8.0 | 0.00 | 0.00 | 0.00 | 86 | 1005.7 |
| 20260905122306 | 74 | 279 | 4.0 | 8.0 | 0.00 | 0.00 | 0.00 | 87 | 1005.7 |
| 20260905121540 | 74 | 54 | 2.0 | 5.0 | 0.00 | 0.00 | 0.00 | 87 | 1005.8 |
| 20260905121036 | 74 | 253 | 0.0 | 3.0 | 0.00 | 0.00 | 0.00 | 88 | 1005.6 |
| 20260905120532 | 74 | 329 | 3.0 | 4.0 | 0.00 | 0.00 | 0.00 | 88 | 1005.6 |
| 20260905120028 | 74 | 163 | 1.0 | 5.0 | 0.00 | 0.00 | 0.00 | 89 | 1005.5 |
| 20260905115524 | 74 | 323 | 2.0 | 3.0 | 0.00 | 0.00 | 0.00 | 90 | 1005.3 |
| 20260905115020 | 73 | 32 | 0.0 | 3.0 | 0.00 | 0.00 | 0.00 | 91 | 1005.1 |
| 20260905114516 | 73 | 351 | 2.0 | 6.0 | 0.00 | 0.00 | 0.00 | 91 | 1005.2 |
| 20260905114013 | 73 | 350 | 1.0 | 5.0 | 0.00 | 0.00 | 0.00 | 92 | 1005.4 |